USA 167

Last updated on Tue Sep 22 2026 00:03:10 GMT+0000 (Coordinated Universal Time)

1 27691U 03008A 26264.49261330 .00000008 00000+0 00000+0 0 9990 2 27691 11.1486 42.5152 0002907 285.4433 87.7058 1.00273682 7746
UTC large
Height (km)
Speed (km/s)
/
Latitude / Longitude
Inclination (degrees)
Orbital Period (minutes)
Azimuth
Elevation
Range (km)
Doppler Factor

Next 0 passes for location: London (51.5072 / 0.1276)

No passes found over London.
USA 167